Date String (YYYY-MM-DD hh:mm:ss) UTC,Instrument flags,absolute air pressure of the measurement (hPa),sample flow rate (lpm),inlet stack bypass flow (lpm),air temperature of the measurement (°C),ambient temperature measured by the external sensor (°C),aerosol sample conditioner tube jacket temperature (°C),OPC LED temperature (°C),internal box temperature (°C),relative humidity of the measurement (%),span deviation,mass concentration of particles derived from Lorenz-Mie calculation of OPC scattering (μg/m³),mass concentration of particles derived from Lorenz-Mie calculation of OPC scattering (μg/m³),mass concentration of particles derived from Lorenz-Mie calculation of OPC scattering (μg/m³)
DateTimeUTC,F1_M11,P_M11,Q1_M11,Q2_M11,T1_M11,T2_M11,T3_M11,T4_M11,T5_M11,U1_M11,ZSPAN_M11,X0_M11,X2_M11,X1_M11
2023-07-23 16:00:00,SystemResetWarning,0833.9,5.00,000.00,029.5,026.5,000.0,037.4,030.7,33.5,0001.6,0014.90,0008.67,0008.17
2023-07-23 16:01:00,SystemResetWarning,0833.9,5.00,000.00,029.5,025.4,000.0,037.3,030.5,34.0,0000.8,0014.59,0008.67,0008.16
2023-07-23 16:02:00,SystemResetWarning,0834.0,5.01,000.00,029.5,025.3,000.0,037.3,030.4,31.3,0000.6,0014.69,0008.72,0008.19
2023-07-23 16:03:00,SystemResetWarning,0834.0,4.98,000.00,029.5,025.7,000.0,037.4,030.4,31.1,0000.5,0014.81,0008.77,0008.20
2023-07-23 16:04:00,SystemResetWarning,0834.0,5.01,000.00,029.5,026.1,000.0,037.5,030.4,30.6,0000.8,0015.19,0008.80,0008.22
2023-07-23 16:05:00,SystemResetWarning,0833.9,5.01,000.00,029.5,026.5,000.0,037.5,030.5,30.4,0000.4,0015.43,0008.82,0008.22
2023-07-23 16:06:00,SystemResetWarning,0834.0,5.00,000.00,029.5,026.8,000.0,037.6,030.6,29.9,0000.3,0015.38,0008.81,0008.21
2023-07-23 16:07:00,SystemResetWarning,0834.0,4.99,000.00,029.6,027.2,000.0,037.6,030.7,28.3,0000.0,0014.80,0008.80,0008.21
2023-07-23 16:08:00,SystemResetWarning,0833.9,5.00,000.00,029.6,027.4,000.0,037.7,030.8,29.1,-000.1,0014.52,0008.78,0008.20
2023-07-23 16:09:00,SystemResetWarning,0833.9,4.99,000.00,029.6,026.5,000.0,037.6,030.7,29.4,-000.1,0014.10,0008.80,0008.19
2023-07-23 16:10:00,SystemResetWarning,0834.0,5.01,000.00,029.6,025.3,000.0,037.5,030.5,28.9,-000.1,0014.98,0008.85,0008.19
2023-07-23 16:11:00,SystemResetWarning,0833.9,5.01,000.00,029.5,025.2,000.0,037.4,030.4,29.2,0000.1,0016.01,0008.87,0008.19
2023-07-23 16:12:00,SystemResetWarning,0833.8,5.00,000.00,029.4,025.6,000.0,037.5,030.3,28.7,0000.0,0016.74,0008.88,0008.21
2023-07-23 16:13:00,SystemResetWarning,0833.9,5.00,000.00,029.4,026.0,000.0,037.5,030.3,29.1,0000.0,0016.72,0008.85,0008.18
2023-07-23 16:14:00,SystemResetWarning,0833.9,4.99,000.00,029.4,026.4,000.0,037.6,030.4,30.8,0000.1,0016.68,0008.82,0008.18
2023-07-23 16:15:00,SystemResetWarning,0833.9,5.00,000.00,029.4,026.8,000.0,037.6,030.5,29.6,0000.7,0016.29,0008.80,0008.18
2023-07-23 16:16:00,SystemResetWarning,0833.9,5.01,000.00,029.4,027.1,000.0,037.6,030.6,29.6,0001.1,0016.21,0008.79,0008.19
2023-07-23 16:17:00,SystemResetWarning,0833.9,5.00,000.00,029.4,027.4,000.0,037.6,030.7,30.7,0000.0,0015.78,0008.79,0008.19
2023-07-23 16:18:00,SystemResetWarning,0833.9,4.98,000.00,029.4,026.6,000.0,037.5,030.6,29.0,0000.7,0015.67,0008.81,0008.18
2023-07-23 16:19:00,SystemResetWarning,0833.9,5.00,000.00,029.4,025.4,000.0,037.4,030.5,29.3,0001.4,0015.66,0008.85,0008.18
2023-07-23 16:20:00,SystemResetWarning,0833.9,5.01,000.00,029.3,025.2,000.0,037.4,030.3,31.0,0001.7,0015.87,0008.81,0008.16
2023-07-23 16:21:00,SystemResetWarning,0833.9,5.00,000.00,029.2,025.5,000.0,037.4,030.2,30.5,0002.5,0014.92,0008.71,0008.13
2023-07-23 16:22:00,SystemResetWarning,0833.9,5.00,000.00,029.2,025.9,000.0,037.4,030.3,31.9,0001.7,0014.32,0008.63,0008.08
2023-07-23 16:23:00,SystemResetWarning,0834.0,5.01,000.00,029.2,026.3,000.0,037.5,030.3,31.2,0001.5,0013.91,0008.56,0008.03
2023-07-23 16:24:00,SystemResetWarning,0834.0,5.00,000.00,029.2,026.7,000.0,037.5,030.5,32.4,0001.3,0013.81,0008.52,0008.00
2023-07-23 16:25:00,SystemResetWarning,0833.9,5.00,000.00,029.2,027.1,000.0,037.5,030.5,33.3,0002.2,0013.77,0008.51,0007.97
2023-07-23 16:26:00,SystemResetWarning,0833.9,5.00,000.00,029.3,027.3,000.0,037.5,030.6,32.6,0002.6,0013.94,0008.45,0007.93
2023-07-23 16:27:00,SystemResetWarning,0833.9,4.98,000.00,029.3,026.7,000.0,037.5,030.6,34.7,0002.2,0013.89,0008.39,0007.87
2023-07-23 16:28:00,SystemResetWarning,0834.0,5.01,000.00,029.3,025.4,000.0,037.3,030.4,33.4,0002.5,0013.59,0008.35,0007.82
2023-07-23 16:29:00,SystemResetWarning,0834.0,5.01,000.00,029.3,025.2,000.0,037.3,030.3,33.9,0002.4,0013.35,0008.28,0007.80
2023-07-23 16:30:00,SystemResetWarning,0834.0,5.01,000.00,029.2,025.5,000.0,037.3,030.3,33.7,0001.5,0012.88,0008.17,0007.76
2023-07-23 16:31:00,SystemResetWarning,0833.9,4.99,000.00,029.1,025.9,000.0,037.4,030.3,33.7,0000.4,0012.67,0008.09,0007.71
2023-07-23 16:32:00,SystemResetWarning,0833.9,5.01,000.00,029.2,026.3,000.0,037.4,030.4,32.3,0000.0,0012.70,0008.04,0007.67
2023-07-23 16:33:00,SystemResetWarning,0833.9,5.00,000.00,029.2,026.7,000.0,037.4,030.5,33.3,0001.8,0012.57,0008.05,0007.66
2023-07-23 16:34:00,SystemResetWarning,0833.9,4.99,000.00,029.2,027.1,000.0,037.4,030.6,33.5,0001.4,0011.84,0008.02,0007.65
2023-07-23 16:35:00,SystemResetWarning,0833.9,5.00,000.00,029.3,027.3,000.0,037.5,030.6,33.6,0002.3,0012.02,0007.98,0007.64
2023-07-23 16:36:00,SystemResetWarning,0834.0,5.01,000.00,029.3,026.8,000.0,037.4,030.7,32.2,0001.5,0012.42,0008.00,0007.65
2023-07-23 16:37:00,SystemResetWarning,0833.9,4.98,000.00,029.3,025.5,000.0,037.3,030.5,31.2,0001.0,0012.63,0008.01,0007.66
2023-07-23 16:38:00,SystemResetWarning,0833.9,5.02,000.00,029.3,025.2,000.0,037.3,030.4,31.6,0000.9,0012.17,0008.01,0007.69
2023-07-23 16:39:00,SystemResetWarning,0833.9,5.01,000.00,029.2,025.5,000.0,037.3,030.3,32.3,0001.4,0012.40,0008.03,0007.71
2023-07-23 16:40:00,SystemResetWarning,0833.9,5.00,000.00,029.2,025.9,000.0,037.3,030.3,32.8,0001.8,0012.73,0008.04,0007.72
2023-07-23 16:41:00,SystemResetWarning,0833.9,5.00,000.00,029.2,026.3,000.0,037.4,030.3,32.9,0002.2,0012.91,0008.11,0007.75
2023-07-23 16:42:00,SystemResetWarning,0833.9,5.00,000.00,029.2,026.7,000.0,037.4,030.4,32.3,0002.0,0012.82,0008.19,0007.79
2023-07-23 16:43:00,SystemResetWarning,0833.9,4.99,000.00,029.2,027.1,000.0,037.4,030.5,32.6,0001.0,0012.71,0008.28,0007.84
2023-07-23 16:44:00,SystemResetWarning,0833.9,5.00,000.00,029.3,027.2,000.0,037.4,030.6,34.4,0000.0,0012.69,0008.30,0007.89
2023-07-23 16:45:00,SystemResetWarning,0833.9,5.00,000.00,029.3,026.1,000.0,037.3,030.5,30.0,0000.4,0012.76,0008.34,0007.92
2023-07-23 16:46:00,SystemResetWarning,0833.9,4.99,000.00,029.3,025.2,000.0,037.3,030.4,27.7,0000.0,0012.71,0008.42,0007.93
2023-07-23 16:47:00,SystemResetWarning,0833.9,5.02,000.00,029.3,025.3,000.0,037.2,030.3,29.1,0000.0,0012.48,0008.40,0007.93
2023-07-23 16:48:00,SystemResetWarning,0833.9,5.00,000.00,029.3,025.6,000.0,037.3,030.2,26.0,0000.0,0012.28,0008.42,0007.95
2023-07-23 16:49:00,SystemResetWarning,0833.9,4.99,000.00,029.2,026.0,000.0,037.4,030.3,24.2,0000.0,0012.52,0008.48,0007.96
2023-07-23 16:50:00,SystemResetWarning,0833.8,5.00,000.00,029.3,026.4,000.0,037.4,030.4,27.4,0000.0,0012.41,0008.49,0007.97
2023-07-23 16:51:00,SystemResetWarning,0833.9,5.00,000.00,029.3,026.8,000.0,037.4,030.5,28.0,0000.0,0012.51,0008.50,0007.96
2023-07-23 16:52:00,SystemResetWarning,0833.8,5.01,000.00,029.3,027.2,000.0,037.5,030.6,28.2,0000.0,0012.64,0008.48,0007.94
2023-07-23 16:53:00,SystemResetWarning,0833.8,5.00,000.00,029.4,027.3,000.0,037.5,030.6,27.2,0000.0,0012.77,0008.46,0007.93
2023-07-23 16:54:00,SystemResetWarning,0833.8,4.98,000.00,029.4,026.3,000.0,037.4,030.5,29.6,0000.7,0013.01,0008.44,0007.93
2023-07-23 16:55:00,SystemResetWarning,0833.7,5.01,000.00,029.3,025.3,000.0,037.3,030.3,28.2,0001.7,0013.65,0008.39,0007.88
2023-07-23 16:56:00,SystemResetWarning,0833.8,5.02,000.00,029.2,025.4,000.0,037.3,030.3,21.3,0001.5,0014.32,0008.35,0007.83
2023-07-23 16:57:00,SystemResetWarning,0833.8,5.00,000.00,029.2,025.7,000.0,037.3,030.2,18.8,0001.5,0014.62,0008.31,0007.78
2023-07-23 16:58:00,SystemResetWarning,0833.8,4.99,000.00,029.1,026.1,000.0,037.4,030.3,17.8,0000.7,0015.25,0008.28,0007.75
2023-07-23 16:59:00,SystemResetWarning,0833.8,5.00,000.00,029.2,026.5,000.0,037.4,030.4,16.8,0000.0,0015.07,0008.25,0007.68
